Regional Weather Roundup
Issued by NWS

Home | Current Version | Previous Version | Graphics & Text | Print | Product List | Glossary On
Versions: 1 2 3 4 5 6 7 8 9 10 11 12 13 14 15 16 17 18 19 20 21 22 23 24 25 26 27 28 29 30 31 32 33 34 35 36 37 38 39 40 41 42 43 44 45 46 47 48 49 50
000
ASUS43 KIND 021859
RWRIN

WEATHER ROUNDUP FOR INDIANA
NATIONAL WEATHER SERVICE INDIANAPOLIS IN
300 PM EDT TUE JUN 02 2015

NOTE: "FAIR" INDICATES FEW OR NO CLOUDS BELOW 12,000 FEET WITH NO
SIGNIFICANT WEATHER AND/OR OBSTRUCTIONS TO VISIBILITY.

* - STATION DOES NOT REPORT WEATHER SUCH AS PRECIPITATION OR FOG.

+ - STATION NOT QUALITY CONTROLLED BY THE NATIONAL WEATHER SERVICE.
    USE DATA WITH CAUTION...ESPECIALLY DEWPOINT AND RELATIVE
    HUMIDITY OBSERVATIONS.

INZ001>003-010>013-019-020-022000-
NORTHWEST INDIANA

CITY           SKY/WX    TMP DP  RH WIND       PRES   REMARKS
GARY /AIRPORT/ MOSUNNY   66  50  55 NE7       30.15F
RENSSELAER +   MOSUNNY   68  52  56 E14       30.13F

$$

LMZ046-743>745-022000-
SOUTHERN LAKE MICHIGAN

STATION/POSITION TIME  TEMP    WIND        PRES    WAVE
                       AIR SEA DIR/SP/G            HT
                 (UTC) (F)     (DEG/KT/KT) (MB)    (FT)
BURNS HARBOR     1800           20/  8/ 10 1021.3F
MICHIGAN CITY    1800   54     360/  9/ 10   N/A
5NW MICH CITY    1800   52 56  360/  6/  8   N/A     1

$$

INZ004-005-014>016-021>024-022000-
NORTH CENTRAL INDIANA

CITY           SKY/WX    TMP DP  RH WIND       PRES   REMARKS
GOSHEN         MOSUNNY   71  50  47 E7        30.13F
SOUTH BEND     MOSUNNY   70  48  45 SE12G17   30.14F

$$

INZ006>009-017-018-025>027-022000-
NORTHEAST INDIANA

CITY           SKY/WX    TMP DP  RH WIND       PRES   REMARKS
ANGOLA *+      MOSUNNY   68  59  73 SE10      30.15F
FORT WAYNE     PTSUNNY   65  53  65 E14G23    30.15F

$$

INZ028-029-035-036-043>045-051>053-022000-
WEST CENTRAL INDIANA

CITY           SKY/WX    TMP DP  RH WIND       PRES   REMARKS
CRAWFORDSVL +  MOSUNNY   67  49  53 NE10      30.11F
GREENCASTLE +  MOSUNNY   68  50  52 E6        30.10F
LAFAYETTE      MOSUNNY   67  53  61 NE12      30.12F
TERRE HAUTE    SUNNY     71  54  54 E5        30.09F

$$

INZ030>032-037>040-046>048-054>057-064-065-022000-
CENTRAL INDIANA

CITY           SKY/WX    TMP DP  RH WIND       PRES   REMARKS
ANDERSON       CLOUDY    61  48  63 E12       30.16F
COLUMBUS       CLOUDY    63  50  63 NE8       30.14F
GREENWOOD *+   PTSUNNY   66  52  59 E10       30.12F
INDIANAPOLIS   MOSUNNY   69  51  52 E9        30.10F
-EAGLE CREEK   SUNNY     68  52  56 VRB6      30.10F
KOKOMO *+      PTSUNNY   64  55  72 E10       30.13F
MT COMFORT *+  PTSUNNY   64  46  52 E10       30.14F
SHELBYVILLE    CLOUDY    63  53  70 E12       30.13F

$$

INZ033-034-041-042-049-050-058-059-022000-
EAST CENTRAL INDIANA

CITY           SKY/WX    TMP DP  RH WIND       PRES   REMARKS
MUNCIE         CLOUDY    62  53  72 E10       30.14F

$$

INZ060-061-067>069-081>083-085>088-022000-
SOUTHWEST INDIANA

CITY           SKY/WX    TMP DP  RH WIND       PRES   REMARKS
EVANSVILLE     CLOUDY    64  55  72 NE7       30.11F HAZE
HUNTINGBURG *+ CLOUDY    64  55  72 NE7       30.10F

$$

INZ062-063-066-070>080-084-089>092-022000-
SOUTH CENTRAL AND SOUTHEAST INDIANA

CITY           SKY/WX    TMP DP  RH WIND       PRES   REMARKS
BLOOMINGTON    MOSUNNY   71  54  54 E8        30.09F
MADISON *+     CLOUDY    61  50  67 E7        30.13F
SEYMOUR +      MOSUNNY   68  52  56 NE7       30.11F

$$



USA.gov is the U.S. government's official web portal to all federal, state and local government web resources and services.